Weather History for Fountain Dale, PA

Change the Weather History Date:

Saturday, October 27, 2012

  Actual Average (KHGR) Record (KHGR)
Temperature  
Mean Temperature 65 °F -  
Max Temperature 69 °F 58 °F 72 °F (2000)
Min Temperature 62 °F 40 °F 35 °F (2005)
Growing Degree Days 15 (Base 50)    
Moisture  
Dew Point 53 °F    
Average Humidity 66    
Maximum Humidity 77    
Minimum Humidity 52    
Precipitation  
Precipitation 0.00 in - - ()
Sea Level Pressure  
Sea Level Pressure 29.96 in    
Wind  
Wind Speed 1 mph (NE)    
Max Wind Speed 8 mph    
Max Gust Speed -    
Visibility 10 miles    
Events      
Averages and records for this station are not official NWS values.
T = Trace of Precipitation, MM = Missing Value Source: NWS Daily Summary

Daily Weather History Graph

Daily Weather History Graph

Search for Another Location

Airport:

Trip Planner

Search our weather history database for the weather conditions in past years. The results will help you decide how hot, cold, wet, or windy it might be!

Date:

Astronomy

Oct. 27, 2012 Rise Set
Actual Time 7:33 AM EDT 6:13 PM EDT
Civil Twilight 7:05 AM EDT 6:40 PM EDT
Nautical Twilight 6:33 AM EDT 7:12 PM EDT
Astronomical Twilight 6:02 AM EDT 7:43 PM EDT
Moon 4:58 PM EDT (10/27) 5:26 AM EDT (10/27)
Length of Visible Light 11h 35m
Length of Day
10h 39m
Waxing Gibbous, 96% of the Moon is Illuminated
Oct 27
Waxing Gibbous
Oct 29
Full
Nov 6
Last Quarter
Nov 13
New
Nov 20
First Quarter

Hourly Weather History & Observations

Time (EDT) Temp. Dew Point Humidity Pressure Visibility Wind Dir Wind Speed Gust Speed Precip Events Conditions
12:53 AM 64.9 °F 55.9 °F 73% 30.04 in 10.0 mi Calm Calm - N/A   Overcast
1:03 AM 64.4 °F 55.4 °F 73% 30.05 in 10.0 mi Calm Calm - N/A   Mostly Cloudy
1:20 AM 64.4 °F 55.4 °F 73% 30.05 in 10.0 mi Calm Calm - N/A   Overcast
1:53 AM 64.0 °F 55.0 °F 73% 30.01 in 10.0 mi Calm Calm - N/A   Overcast
2:51 AM 62.6 °F 55.4 °F 77% 30.02 in 10.0 mi Calm Calm - N/A   Overcast
2:53 AM 63.0 °F 55.0 °F 75% 30.00 in 10.0 mi Calm Calm - N/A   Overcast
3:53 AM 63.0 °F 55.0 °F 75% 29.98 in 10.0 mi Calm Calm - N/A   Overcast
4:53 AM 63.0 °F 54.0 °F 72% 29.97 in 10.0 mi Calm Calm - N/A   Overcast
5:06 AM 62.6 °F 53.6 °F 72% 29.99 in 10.0 mi Calm Calm - N/A   Overcast
5:40 AM 62.6 °F 53.6 °F 72% 29.99 in 10.0 mi Calm Calm - N/A   Overcast
5:53 AM 63.0 °F 54.0 °F 72% 29.97 in 10.0 mi Calm Calm - N/A   Overcast
6:53 AM 62.1 °F 54.0 °F 75% 29.97 in 10.0 mi Calm Calm - N/A   Overcast
7:19 AM 62.6 °F 53.6 °F 72% 29.99 in 10.0 mi Calm Calm - N/A   Overcast
7:53 AM 63.0 °F 53.1 °F 70% 29.99 in 10.0 mi Calm Calm - N/A   Overcast
8:13 AM 62.6 °F 53.6 °F 72% 30.00 in 10.0 mi Calm Calm - N/A   Overcast
8:53 AM 63.0 °F 54.0 °F 72% 29.99 in 10.0 mi Calm Calm - N/A   Overcast
9:51 AM 64.4 °F 53.6 °F 68% 30.00 in 10.0 mi NNE 3.5 mph - N/A   Mostly Cloudy
9:53 AM 64.0 °F 54.0 °F 70% 29.99 in 10.0 mi Variable 3.5 mph - N/A   Mostly Cloudy
10:53 AM 66.0 °F 52.0 °F 60% 29.98 in 10.0 mi Calm Calm - N/A   Overcast
11:08 AM 66.2 °F 51.8 °F 60% 29.99 in 10.0 mi Variable 5.8 mph - N/A   Overcast
11:42 AM 66.2 °F 51.8 °F 60% 29.98 in 10.0 mi Calm Calm - N/A   Scattered Clouds
11:53 AM 66.9 °F 51.1 °F 57% 29.96 in 10.0 mi Calm Calm - N/A   Scattered Clouds
1:53 PM 68.0 °F 50.0 °F 52% 29.92 in 10.0 mi NNE 5.8 mph - N/A   Overcast
2:53 PM 68.0 °F 50.0 °F 52% 29.89 in 10.0 mi Variable 3.5 mph - N/A   Overcast
3:36 PM 68.0 °F 51.8 °F 56% 29.91 in 10.0 mi NE 4.6 mph - N/A   Overcast
3:53 PM 68.0 °F 51.1 °F 55% 29.89 in 10.0 mi NNE 4.6 mph - N/A   Overcast
4:05 PM 68.0 °F 51.8 °F 56% 29.91 in 10.0 mi ENE 5.8 mph - N/A   Overcast
4:41 PM 68.0 °F 51.8 °F 56% 29.91 in 10.0 mi NNE 8.1 mph - N/A   Overcast
4:53 PM 68.0 °F 52.0 °F 56% 29.89 in 10.0 mi Variable 5.8 mph - N/A   Overcast
5:53 PM 66.0 °F 52.0 °F 60% 29.89 in 10.0 mi Calm Calm - N/A   Overcast
6:53 PM 64.0 °F 52.0 °F 65% 29.90 in 10.0 mi Calm Calm - N/A   Partly Cloudy
7:53 PM 64.0 °F 53.1 °F 67% 29.89 in 8.0 mi Calm Calm - N/A   Scattered Clouds
8:53 PM 63.0 °F 52.0 °F 67% 29.88 in 8.0 mi Calm Calm - N/A   Partly Cloudy
9:53 PM 63.0 °F 52.0 °F 67% 29.88 in 9.0 mi NE 5.8 mph - N/A   Overcast
10:53 PM 63.0 °F 52.0 °F 67% 29.88 in 9.0 mi Variable 3.5 mph - N/A   Partly Cloudy
11:53 PM 62.1 °F 52.0 °F 70% 29.88 in 9.0 mi Variable 3.5 mph - N/A   Mostly Cloudy